Duncan, OK

10:49 PM CST on November 18, 2019 (GMT -0600)
Halliburton

Weather History for KDUC - September, 2019

Change the Weather History Date:

Wednesday, September 25, 2019

  Actual Average (KLAW) Record (KLAW)
Temperature  
Mean Temperature 82 °F -  
Max Temperature 93 °F 82 °F 101 °F (1939)
Min Temperature 70 °F 58 °F 43 °F (1975)
Cooling Degree Days 16    
Growing Degree Days 32 (Base 50)    
Moisture  
Dew Point 71 °F    
Average Humidity 73    
Maximum Humidity 96    
Minimum Humidity 46    
Precipitation  
Precipitation 0.00 in - - ()
Sea Level Pressure  
Sea Level Pressure 29.84 in    
Wind  
Wind Speed 9 mph (South)    
Max Wind Speed 15 mph    
Max Gust Speed 18 mph    
Visibility 10 miles    
Events      
Averages and records for this station are not official NWS values.
T = Trace of Precipitation, MM = Missing Value Source: NWS Daily Summary

Daily Weather History Graph

Daily Weather History Graph

Search for Another Location

Airport or City:

Astronomy

Sep. 25, 2019 Rise Set
Actual Time 7:21 AM CDT 7:24 PM CDT
Civil Twilight 6:56 AM CDT 7:49 PM CDT
Nautical Twilight 6:27 AM CDT 8:18 PM CDT
Astronomical Twilight 5:58 AM CDT 8:48 PM CDT
Moon 3:30 AM CDT (9/25) 5:45 PM CDT (9/25)
Length of Visible Light 12h 52m
Length of Day
12h 02m
Waning Crescent, 14% of the Moon is Illuminated
Sep 25
Waning Crescent
Sep 28
New
Oct 5
First Quarter
Oct 13
Full
Oct 21
Last Quarter

Hourly Weather History & Observations

Time (CDT) Temp. Heat Index Dew Point Humidity Pressure Visibility Wind Dir Wind Speed Gust Speed Precip Events Conditions
12:15 AM 74.7 °F - 70.3 °F 86% 29.84 in 10.0 mi SSE 10.4 mph - N/A   Clear
12:35 AM 74.3 °F - 70.5 °F 88% 29.84 in 10.0 mi SSE 10.4 mph - N/A   Clear
12:55 AM 74.7 °F - 70.5 °F 87% 29.84 in 10.0 mi SSE 9.2 mph - N/A   Clear
1:15 AM 74.5 °F - 70.5 °F 87% 29.83 in 10.0 mi SSE 9.2 mph - N/A   Clear
1:35 AM 73.8 °F - 70.5 °F 90% 29.83 in 10.0 mi SSE 8.1 mph - N/A   Clear
1:55 AM 73.9 °F - 70.5 °F 89% 29.83 in 10.0 mi SSE 6.9 mph - N/A   Clear
2:15 AM 73.6 °F - 70.5 °F 90% 29.84 in 10.0 mi SSE 6.9 mph - N/A   Clear
2:35 AM 73.0 °F - 70.3 °F 91% 29.83 in 10.0 mi SSE 6.9 mph - N/A   Clear
3:15 AM 72.7 °F - 70.2 °F 92% 29.82 in 10.0 mi South 6.9 mph - N/A   Clear
3:35 AM 72.0 °F - 69.8 °F 93% 29.82 in 10.0 mi South 4.6 mph - N/A   Clear
3:55 AM 71.4 °F - 69.6 °F 94% 29.82 in 10.0 mi South 5.8 mph - N/A   Clear
4:15 AM 71.1 °F - 69.4 °F 95% 29.82 in 10.0 mi South 5.8 mph - N/A   Clear
4:35 AM 71.2 °F - 69.6 °F 95% 29.81 in 10.0 mi South 6.9 mph - N/A   Clear
4:55 AM 71.4 °F - 69.6 °F 94% 29.82 in 10.0 mi South 5.8 mph - N/A   Clear
5:15 AM 71.2 °F - 69.6 °F 95% 29.83 in 10.0 mi SSE 5.8 mph - N/A   Clear
5:35 AM 71.6 °F - 69.8 °F 94% 29.83 in 10.0 mi SSE 5.8 mph - N/A   Clear
5:55 AM 71.8 °F - 69.8 °F 93% 29.84 in 10.0 mi SSE 5.8 mph - N/A   Clear
6:15 AM 71.4 °F - 69.8 °F 95% 29.84 in 10.0 mi South 4.6 mph - N/A   Clear
6:35 AM 70.5 °F - 69.3 °F 96% 29.84 in 10.0 mi SSE 4.6 mph - N/A   Clear
6:55 AM 70.5 °F - 69.4 °F 96% 29.84 in 10.0 mi SSE 4.6 mph - N/A   Clear
7:35 AM 71.1 °F - 69.8 °F 96% 29.86 in 10.0 mi ESE 4.6 mph - N/A   Clear
7:55 AM 71.2 °F - 69.8 °F 95% 29.87 in 10.0 mi East 5.8 mph - N/A   Clear
8:15 AM 72.9 °F - 70.5 °F 92% 29.87 in 10.0 mi SE 6.9 mph - N/A   Clear
8:35 AM 74.1 °F - 71.1 °F 90% 29.87 in 10.0 mi SE 5.8 mph - N/A   Clear
8:55 AM 75.0 °F - 70.9 °F 87% 29.87 in 10.0 mi SE 5.8 mph - N/A   Clear
9:15 AM 76.3 °F - 71.2 °F 84% 29.88 in 10.0 mi SSE 8.1 mph - N/A   Clear
9:35 AM 77.7 °F - 71.2 °F 80% 29.88 in 10.0 mi South 8.1 mph - N/A   Clear
9:55 AM 79.5 °F - 71.2 °F 76% 29.88 in 10.0 mi South 8.1 mph - N/A   Clear
10:15 AM 81.0 °F 84.7 °F 70.9 °F 71% 29.88 in 10.0 mi SSW 9.2 mph - N/A   Clear
10:35 AM 82.2 °F 86.6 °F 71.2 °F 69% 29.89 in 10.0 mi South 10.4 mph 17.3 mph N/A   Clear
10:55 AM 83.1 °F 88.1 °F 71.8 °F 68% 29.89 in 10.0 mi SSW 10.4 mph - N/A   Clear
11:15 AM 84.2 °F 89.3 °F 71.4 °F 65% 29.89 in 10.0 mi SW 10.4 mph 18.4 mph N/A   Clear
11:35 AM 85.5 °F 90.8 °F 71.2 °F 62% 29.89 in 10.0 mi SW 11.5 mph 17.3 mph N/A   Clear
11:55 AM 86.9 °F 92.9 °F 71.6 °F 60% 29.88 in 10.0 mi SSW 12.7 mph - N/A   Clear
12:15 PM 88.3 °F 95.0 °F 72.0 °F 58% 29.88 in 10.0 mi SW 10.4 mph - N/A   Clear
12:35 PM 89.1 °F 96.0 °F 72.1 °F 57% 29.87 in 10.0 mi SW 8.1 mph - N/A   Clear
12:55 PM 90.0 °F 96.9 °F 71.6 °F 55% 29.86 in 10.0 mi SW 11.5 mph - N/A   Clear
1:15 PM 90.0 °F 96.4 °F 71.4 °F 54% 29.86 in 10.0 mi SSW 11.5 mph 17.3 mph N/A   Clear
1:35 PM 91.0 °F 98.7 °F 72.3 °F 54% 29.85 in 10.0 mi SSW 10.4 mph - N/A   Clear
1:55 PM 91.2 °F 98.5 °F 72.0 °F 53% 29.83 in 10.0 mi South 13.8 mph - N/A   Clear
2:15 PM 91.6 °F 99.3 °F 72.1 °F 53% 29.83 in 10.0 mi South 9.2 mph - N/A   Clear
2:35 PM 92.5 °F 100.7 °F 72.5 °F 52% 29.82 in 10.0 mi South 11.5 mph - N/A   Clear
2:55 PM 92.7 °F 101.1 °F 72.7 °F 52% 29.82 in 10.0 mi South 9.2 mph - N/A   Clear
3:15 PM 93.2 °F 101.7 °F 72.5 °F 51% 29.81 in 10.0 mi South 13.8 mph - N/A   Clear
3:35 PM 93.2 °F 100.5 °F 71.6 °F 49% 29.81 in 10.0 mi South 15.0 mph - N/A   Clear
3:55 PM 93.4 °F 100.3 °F 71.2 °F 48% 29.81 in 10.0 mi SSW 13.8 mph - N/A   Clear
4:15 PM 93.7 °F 99.9 °F 70.3 °F 46% 29.80 in 10.0 mi SSW 15.0 mph - N/A   Clear
4:35 PM 93.6 °F 100.1 °F 70.7 °F 47% 29.80 in 10.0 mi SSW 10.4 mph - N/A   Clear
4:55 PM 93.6 °F 99.5 °F 70.0 °F 46% 29.79 in 10.0 mi South 13.8 mph - N/A   Clear
5:15 PM 93.2 °F 98.8 °F 69.6 °F 46% 29.80 in 10.0 mi South 11.5 mph - N/A   Clear
5:35 PM 93.0 °F 99.5 °F 70.5 °F 48% 29.80 in 10.0 mi South 12.7 mph - N/A   Clear
5:55 PM 92.7 °F 99.9 °F 71.6 °F 50% 29.80 in 10.0 mi South 11.5 mph - N/A   Clear
6:15 PM 92.1 °F 98.8 °F 70.9 °F 50% 29.80 in 10.0 mi South 10.4 mph - N/A   Clear
6:35 PM 91.0 °F 97.6 °F 71.4 °F 52% 29.80 in 10.0 mi SSE 8.1 mph - N/A   Clear
6:55 PM 89.1 °F 96.0 °F 72.0 °F 57% 29.80 in 10.0 mi SSE 8.1 mph - N/A   Clear
7:15 PM 86.9 °F 94.1 °F 72.9 °F 63% 29.80 in 10.0 mi SE 6.9 mph - N/A   Clear
7:35 PM 85.1 °F 91.8 °F 73.0 °F 67% 29.81 in 10.0 mi SE 6.9 mph - N/A   Clear
7:55 PM 84.0 °F 90.2 °F 72.9 °F 69% 29.81 in 10.0 mi SSE 8.1 mph - N/A   Clear
8:15 PM 83.7 °F 89.4 °F 72.5 °F 69% 29.81 in 10.0 mi SSE 9.2 mph - N/A   Clear
8:35 PM 82.9 °F 88.5 °F 72.5 °F 71% 29.82 in 10.0 mi SSE 9.2 mph - N/A   Clear
9:15 PM 83.7 °F 89.4 °F 72.3 °F 69% 29.83 in 10.0 mi SSE 11.5 mph - N/A   Clear
9:35 PM 83.5 °F 88.8 °F 71.8 °F 68% 29.83 in 10.0 mi SSE 11.5 mph - N/A   Clear
9:55 PM 82.8 °F 87.7 °F 71.8 °F 69% 29.84 in 10.0 mi SSE 9.2 mph - N/A   Clear
10:15 PM 82.0 °F 87.0 °F 72.1 °F 72% 29.84 in 10.0 mi SSE 11.5 mph - N/A   Clear
10:35 PM 81.5 °F 86.1 °F 72.0 °F 73% 29.84 in 10.0 mi SSE 9.2 mph - N/A   Clear
10:55 PM 80.8 °F 84.9 °F 71.8 °F 74% 29.84 in 10.0 mi South 9.2 mph - N/A   Clear
11:15 PM 79.9 °F - 71.6 °F 76% 29.84 in 10.0 mi South 10.4 mph - N/A   Clear
11:35 PM 79.7 °F - 71.1 °F 75% 29.84 in 10.0 mi South 10.4 mph - N/A   Clear
11:55 PM 79.2 °F - 70.7 °F 75% 29.84 in 10.0 mi SSE 8.1 mph - N/A   Clear